Location: Mat�lon
(46.2791°N, 7.1028°E)
Time: 00:44:01
(UTC+00:00)

Cosmos 990 Rocket - Visible Passes

Search period start: 24 January 2021 00:00
Search period end: 03 February 2021 00:00
Orbit: 747 x 768 km, 74.0° (Epoch: 23 January)

Date Brightness Start Highest point End Pass type
(mag) Time Alt. Az. Time Alt. Az. Time Alt. Az.
24 Jan 5.9 04:04:37 19° SSE 04:04:37 19° SSE 04:05:59 10° SSE visible
24 Jan 5.2 16:53:21 10° SE 16:57:14 22° E 17:01:06 10° NE visible
24 Jan 4.6 18:33:34 10° SW 18:38:40 54° WNW 18:42:51 15° N visible
24 Jan 6.9 20:21:02 10° NW 20:21:46 10° NW 20:22:29 10° NW visible
25 Jan 3.9 17:53:17 10° SSW 17:58:30 88° ESE 18:03:43 10° NNE visible
25 Jan 6.5 19:37:53 10° W 19:41:06 16° NW 19:44:15 10° N visible
26 Jan 4.2 17:13:28 10° S 17:18:29 50° ESE 17:23:29 10° NNE visible
26 Jan 6.0 18:56:19 10° WSW 19:00:36 25° NW 19:04:54 10° N visible
27 Jan 5.2 18:15:20 10° SW 18:20:14 41° WNW 18:25:09 10° N visible
28 Jan 4.3 17:34:50 10° SSW 17:40:01 70° WNW 17:45:13 10° NNE visible
28 Jan 6.7 19:20:34 10° WNW 19:22:52 13° NW 19:25:10 10° NNW visible
29 Jan 4.0 16:54:46 10° S 16:59:56 68° ESE 17:05:05 10° NNE visible
29 Jan 6.3 18:38:30 10° W 18:42:18 20° NW 18:46:05 10° N visible
30 Jan 5.7 17:57:15 10° WSW 18:01:51 32° WNW 18:06:29 10° N visible
31 Jan 4.8 17:16:30 10° SW 17:21:34 52° WNW 17:26:38 10° NNE visible
01 Feb 6.5 18:20:55 10° W 18:24:01 16° NW 18:27:09 10° N visible
02 Feb 6.1 17:39:17 10° WSW 17:43:31 25° NW 17:47:45 10° N visible
